When you browse on this site, cookies collect data to enhance your experience and personalize the content and advertising you see.
Visit our Privacy Policy to learn more. By continuing to use the site, you agree to this use of cookies and data.
  • In Österreich
  • Länderverzeichnis
  • Für 7 Tage
  • Wassertemperatur
  • Wetterkarte
  • News
  • Widgets
  • user-avatar
    Anmelden

    Stündliche Wetter Flerovo

    Heute, 15 September, Sonntag

    Zeit Temperatur Niederschläge Wind Luftdruck Luftfeuchtigkeit
    00:00 +9°C° 0 mm 2 m/S 757 mmHg 87%
    01:00 +9°C° 0 mm 2 m/S 757 mmHg 89%
    02:00 +8°C° 0 mm 2 m/S 757 mmHg 90%
    03:00 +8°C° 0 mm 2 m/S 757 mmHg 91%
    04:00 +8°C° 0 mm 2 m/S 757 mmHg 92%
    05:00 +8°C° 0 mm 2 m/S 757 mmHg 92%
    06:00 +9°C° 0 mm 2 m/S 756 mmHg 87%
    07:00 +10°C° 0 mm 3 m/S 756 mmHg 81%
    08:00 +11°C° 0 mm 3 m/S 756 mmHg 75%
    09:00 +13°C° 0 mm 4 m/S 755 mmHg 69%
    10:00 +14°C° 0 mm 5 m/S 755 mmHg 63%
    11:00 +16°C° 0 mm 5 m/S 754 mmHg 56%
    12:00 +16°C° 0 mm 6 m/S 754 mmHg 55%
    13:00 +16°C° 0 mm 6 m/S 753 mmHg 53%
    14:00 +17°C° 0 mm 6 m/S 753 mmHg 52%
    15:00 +17°C° 0 mm 6 m/S 752 mmHg 53%
    16:00 +16°C° 0 mm 5 m/S 751 mmHg 54%
    17:00 +16°C° 0 mm 5 m/S 750 mmHg 55%
    18:00 +15°C° 0 mm 5 m/S 749 mmHg 56%
    19:00 +15°C° 0 mm 5 m/S 749 mmHg 56%
    20:00 +14°C° 0 mm 5 m/S 749 mmHg 57%
    21:00 +14°C° 0 mm 5 m/S 748 mmHg 58%
    22:00 +14°C° 0 mm 5 m/S 747 mmHg 59%
    23:00 +14°C° 0 mm 5 m/S 747 mmHg 59%

    Morgen, 16 September, Montag

    Zeit Temperatur Niederschläge Wind Luftdruck Luftfeuchtigkeit
    00:00 +14°C° 0 mm 5 m/S 747 mmHg 61%
    01:00 +14°C° 0 mm 5 m/S 746 mmHg 62%
    02:00 +15°C° 0 mm 5 m/S 746 mmHg 63%
    03:00 +15°C° 0 mm 5 m/S 746 mmHg 63%
    04:00 +15°C° 0 mm 5 m/S 746 mmHg 62%
    05:00 +15°C° 0 mm 5 m/S 746 mmHg 61%
    06:00 +15°C° 0 mm 6 m/S 746 mmHg 61%
    07:00 +15°C° 0 mm 6 m/S 746 mmHg 61%
    08:00 +15°C° 0 mm 6 m/S 746 mmHg 61%
    09:00 +16°C° 0 mm 7 m/S 746 mmHg 58%
    10:00 +16°C° 0 mm 7 m/S 746 mmHg 55%
    11:00 +17°C° 0 mm 7 m/S 746 mmHg 51%
    12:00 +17°C° 0 mm 7 m/S 746 mmHg 51%
    13:00 +17°C° 0 mm 7 m/S 746 mmHg 50%
    14:00 +17°C° 0 mm 7 m/S 745 mmHg 49%
    15:00 +16°C° 0 mm 7 m/S 745 mmHg 52%
    16:00 +15°C° 0 mm 6 m/S 745 mmHg 55%
    17:00 +14°C° 0 mm 6 m/S 745 mmHg 58%
    18:00 +13°C° 0 mm 5 m/S 745 mmHg 62%
    19:00 +12°C° 0 mm 5 m/S 745 mmHg 66%
    20:00 +10°C° 0 mm 4 m/S 745 mmHg 69%
    21:00 +10°C° 0 mm 4 m/S 745 mmHg 70%
    22:00 +10°C° 0 mm 4 m/S 745 mmHg 72%
    23:00 +8°C° 0 mm 4 m/S 745 mmHg 73%

    übermorgen, 17 September, Dienstag

    Zeit Temperatur Niederschläge Wind Luftdruck Luftfeuchtigkeit
    00:00 +8°C° 0 mm 4 m/S 745 mmHg 75%
    01:00 +7°C° 0 mm 4 m/S 744 mmHg 78%
    02:00 +6°C° 0 mm 4 m/S 744 mmHg 80%
    03:00 +7°C° 0 mm 3 m/S 744 mmHg 83%
    04:00 +7°C° 0 mm 3 m/S 744 mmHg 86%
    05:00 +5°C° 0 mm 3 m/S 743 mmHg 88%
    06:00 +6°C° 0 mm 4 m/S 743 mmHg 83%
    07:00 +7°C° 0 mm 5 m/S 743 mmHg 78%
    08:00 +8°C° 0 mm 5 m/S 743 mmHg 73%
    09:00 +10°C° 0 mm 6 m/S 743 mmHg 67%
    10:00 +11°C° 0 mm 6 m/S 743 mmHg 61%
    11:00 +14°C° 0 mm 6 m/S 743 mmHg 55%
    12:00 +14°C° 0.1 mm 7 m/S 742 mmHg 54%
    13:00 +14°C° 0.1 mm 7 m/S 742 mmHg 53%
    14:00 +15°C° 0.1 mm 7 m/S 742 mmHg 52%
    15:00 +14°C° 0.1 mm 6 m/S 741 mmHg 55%
    16:00 +14°C° 0.1 mm 6 m/S 741 mmHg 58%
    17:00 +13°C° 0.1 mm 5 m/S 741 mmHg 61%
    18:00 +12°C° 0.2 mm 5 m/S 741 mmHg 67%
    19:00 +11°C° 0.2 mm 4 m/S 741 mmHg 73%
    20:00 +10°C° 0.2 mm 4 m/S 741 mmHg 79%
    21:00 +8°C° 0.4 mm 4 m/S 740 mmHg 82%
    22:00 +7°C° 0.4 mm 5 m/S 740 mmHg 85%
    23:00 +6°C° 0.4 mm 5 m/S 740 mmHg 88%

    18 September, Mittwoch

    Zeit Temperatur Niederschläge Wind Luftdruck Luftfeuchtigkeit
    00:00 +6°C° 0 mm 5 m/S 740 mmHg 88%
    01:00 +6°C° 0 mm 5 m/S 740 mmHg 88%
    02:00 +5°C° 0 mm 5 m/S 740 mmHg 88%
    03:00 +4°C° 0 mm 6 m/S 740 mmHg 88%
    04:00 +4°C° 0 mm 6 m/S 740 mmHg 87%
    05:00 +4°C° 0 mm 7 m/S 740 mmHg 87%
    06:00 +4°C° 0 mm 7 m/S 740 mmHg 85%
    07:00 +5°C° 0 mm 7 m/S 741 mmHg 84%
    08:00 +5°C° 0 mm 7 m/S 741 mmHg 82%
    09:00 +6°C° 0 mm 7 m/S 742 mmHg 79%
    10:00 +7°C° 0 mm 6 m/S 742 mmHg 75%
    11:00 +8°C° 0 mm 6 m/S 743 mmHg 71%
    12:00 +9°C° 0.1 mm 6 m/S 743 mmHg 66%
    13:00 +10°C° 0.1 mm 6 m/S 743 mmHg 62%
    14:00 +13°C° 0.1 mm 6 m/S 744 mmHg 58%
    15:00 +11°C° 0.2 mm 6 m/S 744 mmHg 65%
    16:00 +10°C° 0.2 mm 6 m/S 744 mmHg 73%
    17:00 +9°C° 0.2 mm 6 m/S 745 mmHg 80%
    18:00 +8°C° 0 mm 6 m/S 745 mmHg 83%
    19:00 +8°C° 0 mm 5 m/S 745 mmHg 85%
    20:00 +7°C° 0 mm 5 m/S 746 mmHg 88%
    21:00 +7°C° 0 mm 4 m/S 746 mmHg 90%
    22:00 +7°C° 0 mm 4 m/S 747 mmHg 92%
    23:00 +6°C° 0 mm 4 m/S 747 mmHg 95%

    19 September, Donnerstag

    Zeit Temperatur Niederschläge Wind Luftdruck Luftfeuchtigkeit
    00:00 +6°C° 0 mm 4 m/S 747 mmHg 95%
    01:00 +6°C° 0 mm 4 m/S 748 mmHg 96%
    02:00 +5°C° 0 mm 4 m/S 748 mmHg 96%
    03:00 +5°C° 0 mm 4 m/S 748 mmHg 96%
    04:00 +5°C° 0 mm 4 m/S 748 mmHg 97%
    05:00 +4°C° 0 mm 4 m/S 749 mmHg 97%
    06:00 +5°C° 0 mm 4 m/S 749 mmHg 93%
    07:00 +6°C° 0 mm 4 m/S 749 mmHg 90%
    08:00 +6°C° 0 mm 4 m/S 750 mmHg 87%
    09:00 +7°C° 0 mm 4 m/S 750 mmHg 79%
    10:00 +10°C° 0 mm 4 m/S 750 mmHg 70%
    11:00 +11°C° 0 mm 4 m/S 750 mmHg 62%
    12:00 +11°C° 0.3 mm 4 m/S 750 mmHg 63%
    13:00 +12°C° 0.3 mm 4 m/S 750 mmHg 65%
    14:00 +12°C° 0.3 mm 4 m/S 750 mmHg 66%
    15:00 +12°C° 0.4 mm 4 m/S 750 mmHg 68%
    16:00 +11°C° 0.4 mm 4 m/S 750 mmHg 69%
    17:00 +11°C° 0.4 mm 3 m/S 750 mmHg 71%
    18:00 +10°C° 0.1 mm 3 m/S 750 mmHg 76%
    19:00 +8°C° 0.1 mm 3 m/S 750 mmHg 81%
    20:00 +7°C° 0.1 mm 3 m/S 750 mmHg 86%
    21:00 +5°C° 0 mm 3 m/S 750 mmHg 87%
    22:00 +5°C° 0 mm 3 m/S 750 mmHg 88%
    23:00 +4°C° 0 mm 3 m/S 750 mmHg 89%

    20 September, Freitag

    Zeit Temperatur Niederschläge Wind Luftdruck Luftfeuchtigkeit
    00:00 +4°C° 0 mm 3 m/S 750 mmHg 90%
    01:00 +3°C° 0 mm 3 m/S 750 mmHg 92%
    02:00 +2°C° 0 mm 3 m/S 750 mmHg 93%
    03:00 +3°C° 0.1 mm 3 m/S 750 mmHg 92%
    04:00 +3°C° 0.1 mm 3 m/S 750 mmHg 91%
    05:00 +4°C° 0.1 mm 3 m/S 750 mmHg 90%
    06:00 +4°C° 0.2 mm 3 m/S 750 mmHg 90%
    07:00 +5°C° 0.2 mm 4 m/S 751 mmHg 90%
    08:00 +5°C° 0.2 mm 4 m/S 751 mmHg 89%
    09:00 +5°C° 0.2 mm 4 m/S 752 mmHg 87%
    10:00 +5°C° 0.2 mm 5 m/S 752 mmHg 85%
    11:00 +6°C° 0.2 mm 5 m/S 753 mmHg 83%
    12:00 +7°C° 0.1 mm 5 m/S 753 mmHg 75%
    13:00 +8°C° 0.1 mm 5 m/S 753 mmHg 67%
    14:00 +9°C° 0.1 mm 5 m/S 753 mmHg 59%
    15:00 +10°C° 0.3 mm 4 m/S 754 mmHg 62%
    16:00 +8°C° 0.3 mm 4 m/S 754 mmHg 65%
    17:00 +9°C° 0.3 mm 3 m/S 754 mmHg 68%
    18:00 +7°C° 0 mm 3 m/S 755 mmHg 71%
    19:00 +6°C° 0 mm 2 m/S 755 mmHg 73%
    20:00 +4°C° 0 mm 2 m/S 755 mmHg 76%
    21:00 +4°C° 0 mm 2 m/S 756 mmHg 77%
    22:00 +4°C° 0 mm 2 m/S 756 mmHg 78%
    23:00 +3°C° 0 mm 2 m/S 756 mmHg 80%
    Mehr zeigen